Temp
71 72 71 70 70 70 70 69 70 71 71 71 71 72 73 73 73 74 74 74 74 74 74 74 74 74 72 71 71 72 72 72 69 66 67 68 69 69 69 69 71 72
68 70 70 71 71 71 70 70 70 70 70 70 70 71 73 74 74 74 74 75 75 74 75 75 75 74 72 72 72 71 72 72 69 68 65 66 67 68 69 70 71 71
67 68 69 69 69 70 70 71 70 70 70 70 70 70 71 73 73 74 74 74 73 72 72 73 74 73 72 73 73 71 71 70 69 68 67 68 67 69 71 71 71 69
65 66 67 68 70 70 71 71 71 70 70 70 70 71 70 72 72 72 72 73 73 70 72 74 73 73 73 74 72 71 71 71 72 70 69 73 73 73 72 71 69 67
64 65 66 68 69 71 71 71 70 71 71 71 71 71 71 71 71 72 72 73 72 72 73 73 73 72 73 73 73 71 71 71 73 73 73 72 72 73 73 69 68 69
63 65 66 67 69 69 70 71 72 71 71 70 70 71 71 71 71 71 72 72 72 72 74 75 74 74 73 73 72 72 72 73 74 74 73 73 73 74 74 71 70 71
61 62 63 65 66 68 69 70 71 70 70 71 72 70 70 70 70 71 73 71 71 71 74 74 74 73 73 72 72 71 72 72 73 74 73 72 72 71 72 71 73 73
61 61 62 63 63 65 67 69 71 70 71 71 69 70 70 71 72 72 73 71 70 69 72 73 72 75 73 73 72 71 70 71 72 73 73 72 70 71 72 72 72 72
61 60 60 61 62 65 66 67 68 69 71 69 66 67 68 69 69 71 72 70 67 66 68 67 73 75 74 73 72 72 71 71 72 73 72 70 70 71 72 73 71 71
60 60 59 59 60 62 64 66 67 68 69 66 65 65 64 65 67 70 71 71 72 72 71 74 75 75 74 74 73 73 72 72 72 73 73 72 71 72 73 72 71 71
60 59 58 57 58 59 61 65 68 68 68 66 65 63 64 65 65 67 68 71 68 66 67 70 75 75 73 72 73 73 73 72 73 73 73 73 72 72 71 73 72 72
59 59 58 58 58 58 59 62 66 68 68 66 65 64 64 64 65 66 67 67 67 69 69 70 76 75 74 74 74 73 72 73 73 73 73 73 73 73 73 74 73 73
59 59 59 58 57 58 59 62 65 67 68 65 63 64 64 64 64 66 66 67 73 70 73 74 75 75 75 74 74 74 73 73 72 72 72 73 74 74 75 74 75 75
60 60 60 59 59 59 59 60 62 66 67 64 62 62 64 64 64 66 67 68 68 67 65 68 71 75 77 76 76 74 74 74 74 72 72 72 73 75 75 74 74 75
61 61 61 61 59 58 58 58 59 61 62 63 62 63 63 63 64 66 67 69 73 68 68 65 65 71 78 76 75 75 74 72 74 74 73 72 72 72 73 74 74 74
62 61 62 62 60 58 57 57 58 57 56 58 63 63 63 64 64 66 69 67 72 70 67 67 67 72 69 61 63 77 75 75 73 73 73 73 71 71 71 72 72 73
62 62 63 61 60 59 58 58 57 56 55 54 54 56 59 62 63 64 66 67 74 73 72 68 71 72 52 51 52 53 71 75 74 73 74 73 72 71 70 71 72 74
62 62 62 61 60 60 59 58 57 55 54 53 52 52 54 55 56 57 61 66 69 69 66 65 67 46 45 48 49 48 53 72 75 74 73 73 73 73 72 72 72 72
62 62 61 61 60 59 59 58 56 54 53 52 51 52 52 52 53 54 56 60 63 66 67 65 62 43 40 41 43 43 44 53 77 76 74 74 74 75 75 74 73 71
61 61 60 61 60 59 58 57 55 53 53 53 52 52 51 50 51 51 52 54 56 59 64 65 59 44 40 39 41 40 42 45 70 76 74 75 74 75 74 74 72 71
60 60 59 60 60 60 58 57 55 53 52 52 52 51 51 50 50 50 50 52 52 52 57 62 56 40 40 39 40 40 40 44 64 72 75 75 75 74 74 74 73 72
59 59 59 59 59 59 58 57 55 54 52 51 52 52 52 51 52 52 51 50 49 49 51 53 55 41 39 40 39 41 39 55 65 70 73 75 74 75 74 75 75 74
59 59 58 58 59 58 57 56 55 54 53 53 52 51 50 50 50 50 51 51 49 48 48 48 50 44 39 39 39 39 43 60 66 70 73 73 74 73 73 74 74 73
59 59 58 58 57 56 56 56 56 56 55 55 53 52 50 50 50 50 50 50 49 49 47 48 47 45 39 39 39 38 45 58 66 68 70 72 71 71 73 73 63 47
60 59 58 57 56 56 56 56 56 57 57 57 56 55 54 53 52 50 49 49 49 49 47 47 47 45 40 38 39 39 47 58 64 70 69 68 68 68 69 68 64 57
60 59 57 57 56 55 55 56 57 57 56 56 56 57 56 55 54 53 50 48 48 49 49 48 46 46 44 38 39 40 41 52 58 63 65 63 65 67 66 64 62 59
MSLP
1017.04 1016.84 1016.84 1016.76 1016.64 1016.48 1016.40 1016.40 1016.24 1016.12 1015.92 1015.80 1015.80 1015.64 1015.52 1015.44 1015.56 1015.64 1015.64 1015.64 1015.60 1015.72 1015.84 1016.00 1016.12 1016.40 1016.72 1016.92 1017.08 1017.20 1017.40 1017.64 1018.00 1018.08 1018.20 1018.28 1018.32 1018.36 1018.36 1018.40 1018.40 1018.28
1017.32 1017.00 1016.76 1016.64 1016.48 1016.36 1016.32 1016.28 1016.16 1015.96 1015.88 1015.84 1015.64 1015.48 1015.32 1015.16 1015.24 1015.32 1015.32 1015.32 1015.36 1015.56 1015.64 1015.72 1015.88 1016.12 1016.40 1016.68 1016.84 1017.04 1017.24 1017.36 1017.76 1017.76 1017.96 1018.04 1018.28 1018.40 1018.16 1018.08 1018.16 1018.20
1017.48 1017.12 1016.88 1016.64 1016.40 1016.16 1016.04 1015.88 1015.84 1015.84 1015.76 1015.60 1015.52 1015.52 1015.44 1015.12 1015.16 1015.12 1014.96 1014.96 1015.16 1015.32 1015.52 1015.60 1015.76 1015.88 1016.20 1016.32 1016.44 1016.64 1016.88 1017.08 1017.32 1017.52 1017.76 1017.80 1018.12 1018.00 1017.68 1017.76 1017.84 1018.16
1017.76 1017.48 1017.04 1016.68 1016.32 1016.08 1015.76 1015.60 1015.40 1015.40 1015.52 1015.56 1015.44 1015.32 1015.36 1015.08 1015.00 1015.00 1014.88 1014.84 1015.00 1015.36 1015.36 1015.32 1015.52 1015.68 1015.84 1015.96 1016.08 1016.28 1016.52 1016.68 1016.80 1017.08 1017.40 1017.12 1017.08 1017.08 1017.20 1017.40 1017.68 1018.08
1017.92 1017.56 1017.20 1016.76 1016.28 1015.96 1015.72 1015.52 1015.44 1015.24 1015.28 1015.20 1015.16 1015.16 1015.08 1014.96 1014.92 1014.84 1014.68 1014.60 1014.76 1014.92 1014.92 1015.04 1015.24 1015.44 1015.56 1015.68 1015.76 1016.00 1016.20 1016.40 1016.44 1016.56 1016.76 1016.96 1016.96 1016.92 1016.84 1017.16 1017.48 1017.64
1018.00 1017.72 1017.32 1016.92 1016.28 1016.00 1015.72 1015.40 1015.24 1015.16 1015.12 1015.12 1015.08 1014.96 1014.84 1014.72 1014.76 1014.64 1014.44 1014.44 1014.52 1014.68 1014.68 1014.72 1014.92 1015.00 1015.08 1015.28 1015.48 1015.68 1015.84 1016.04 1016.08 1016.24 1016.52 1016.68 1016.64 1016.60 1016.56 1016.72 1017.00 1017.12
1018.36 1017.96 1017.56 1017.12 1016.68 1016.08 1015.72 1015.40 1015.20 1015.12 1015.00 1014.88 1014.72 1014.80 1014.60 1014.56 1014.52 1014.40 1014.12 1014.20 1014.32 1014.56 1014.44 1014.52 1014.56 1014.68 1014.76 1015.04 1015.20 1015.40 1015.56 1015.76 1015.92 1016.00 1016.16 1016.28 1016.44 1016.56 1016.60 1016.64 1016.56 1016.68
1018.44 1018.16 1017.76 1017.36 1016.92 1016.40 1015.92 1015.48 1015.16 1014.88 1014.68 1014.56 1014.60 1014.44 1014.40 1014.28 1014.16 1014.04 1013.84 1014.00 1014.28 1014.60 1014.40 1014.36 1014.48 1014.40 1014.64 1014.84 1015.04 1015.20 1015.44 1015.64 1015.76 1015.84 1015.88 1016.08 1016.24 1016.36 1016.24 1016.28 1016.36 1016.48
1018.56 1018.36 1018.08 1017.56 1017.04 1016.48 1016.12 1015.76 1015.28 1014.88 1014.56 1014.60 1014.72 1014.48 1014.24 1014.16 1014.04 1013.84 1013.72 1013.88 1014.36 1014.64 1014.64 1014.88 1014.16 1014.12 1014.40 1014.64 1014.76 1014.88 1015.12 1015.36 1015.44 1015.52 1015.72 1015.92 1016.08 1016.04 1016.00 1016.04 1016.28 1016.32
1018.76 1018.52 1018.28 1017.92 1017.44 1016.84 1016.32 1015.80 1015.28 1014.88 1014.52 1014.52 1014.60 1014.52 1014.44 1014.44 1014.12 1013.92 1013.76 1013.68 1013.44 1013.60 1013.88 1013.76 1013.72 1013.92 1014.20 1014.40 1014.48 1014.60 1014.80 1015.04 1015.24 1015.28 1015.40 1015.56 1015.64 1015.68 1015.68 1015.88 1016.08 1016.24
1018.84 1018.64 1018.48 1018.20 1017.84 1017.28 1016.68 1015.88 1015.24 1014.84 1014.60 1014.52 1014.48 1014.64 1014.40 1014.16 1014.32 1014.04 1013.88 1013.52 1013.72 1013.96 1014.04 1014.00 1013.52 1013.68 1013.96 1014.16 1014.16 1014.32 1014.52 1014.76 1014.88 1015.00 1015.12 1015.24 1015.36 1015.36 1015.40 1015.52 1015.80 1016.04
1018.96 1018.76 1018.56 1018.36 1018.04 1017.60 1017.00 1016.28 1015.44 1014.88 1014.56 1014.44 1014.40 1014.56 1014.32 1014.00 1014.00 1013.96 1013.96 1013.92 1013.72 1013.56 1013.56 1013.68 1013.20 1013.36 1013.64 1013.76 1013.88 1014.08 1014.36 1014.48 1014.52 1014.68 1014.84 1015.04 1015.12 1015.12 1015.20 1015.32 1015.52 1015.76
1019.12 1018.92 1018.68 1018.44 1018.24 1017.84 1017.24 1016.44 1015.56 1014.92 1014.60 1014.48 1014.40 1014.20 1013.96 1013.88 1013.80 1013.72 1013.80 1013.64 1012.76 1012.76 1012.68 1012.68 1012.68 1012.92 1013.20 1013.48 1013.60 1013.80 1014.12 1014.32 1014.48 1014.56 1014.72 1014.84 1014.84 1014.92 1014.88 1015.04 1015.16 1015.32
1019.32 1019.04 1018.76 1018.56 1018.40 1018.00 1017.52 1016.88 1016.08 1015.20 1014.76 1014.60 1014.44 1014.16 1013.80 1013.76 1013.68 1013.56 1013.52 1013.32 1012.84 1012.72 1012.92 1012.84 1012.72 1012.72 1012.80 1013.08 1013.32 1013.64 1013.92 1014.12 1014.24 1014.44 1014.60 1014.68 1014.72 1014.68 1014.68 1014.84 1015.00 1015.08
1019.48 1019.12 1018.76 1018.52 1018.36 1018.20 1017.80 1017.36 1016.76 1016.00 1015.32 1014.76 1014.44 1014.20 1013.88 1013.76 1013.60 1013.32 1013.36 1013.04 1012.28 1012.72 1012.72 1013.04 1013.68 1013.20 1012.48 1012.80 1013.08 1013.40 1013.68 1013.96 1014.04 1014.20 1014.44 1014.64 1014.76 1014.72 1014.68 1014.72 1014.80 1014.92
1019.64 1019.32 1018.92 1018.64 1018.44 1018.20 1018.04 1017.76 1017.32 1016.88 1016.28 1015.52 1014.60 1014.24 1014.20 1013.84 1013.64 1013.40 1013.12 1013.16 1012.44 1012.52 1012.76 1013.12 1013.36 1012.84 1012.48 1012.76 1012.84 1012.96 1013.40 1013.64 1013.88 1014.08 1014.24 1014.40 1014.64 1014.76 1014.80 1014.72 1014.72 1014.84
1019.84 1019.48 1019.00 1018.84 1018.64 1018.40 1018.12 1017.80 1017.56 1017.44 1017.12 1016.72 1016.20 1015.44 1014.88 1014.28 1013.84 1013.52 1013.36 1013.20 1012.40 1012.16 1012.28 1012.88 1012.68 1012.40 1013.16 1012.96 1013.12 1013.24 1013.16 1013.36 1013.76 1013.96 1014.04 1014.20 1014.44 1014.64 1014.76 1014.72 1014.60 1014.60
1020.00 1019.68 1019.32 1019.08 1018.88 1018.68 1018.48 1018.24 1017.96 1017.76 1017.64 1017.36 1017.04 1016.56 1016.08 1015.60 1014.96 1014.60 1014.08 1013.64 1013.28 1013.16 1013.20 1013.52 1013.36 1014.00 1013.72 1013.52 1013.64 1013.68 1013.64 1013.48 1013.48 1013.76 1013.88 1014.00 1014.08 1014.28 1014.36 1014.36 1014.40 1014.40
1020.24 1020.00 1019.68 1019.36 1019.16 1019.00 1018.84 1018.68 1018.52 1018.28 1018.04 1017.84 1017.60 1017.36 1016.96 1016.56 1016.20 1015.80 1015.52 1014.96 1014.40 1013.84 1013.60 1013.56 1013.72 1014.52 1015.12 1015.20 1014.76 1014.48 1014.36 1014.20 1013.40 1013.32 1013.56 1013.68 1013.76 1013.88 1013.88 1013.96 1014.08 1014.28
1020.72 1020.40 1020.04 1019.76 1019.48 1019.28 1019.12 1019.04 1019.00 1018.92 1018.68 1018.40 1018.12 1017.80 1017.56 1017.36 1017.08 1016.84 1016.60 1016.28 1015.72 1014.96 1014.24 1014.08 1014.72 1015.40 1015.60 1015.76 1015.56 1015.40 1015.00 1014.88 1013.96 1013.20 1013.32 1013.40 1013.52 1013.56 1013.60 1013.68 1013.80 1014.04
1021.20 1020.80 1020.44 1020.08 1019.76 1019.48 1019.36 1019.28 1019.32 1019.32 1019.16 1018.84 1018.52 1018.36 1018.12 1017.84 1017.64 1017.36 1017.24 1017.00 1016.68 1016.24 1015.52 1014.76 1015.56 1016.12 1016.08 1016.00 1015.80 1015.68 1015.48 1015.32 1014.48 1013.40 1013.12 1013.20 1013.24 1013.36 1013.36 1013.40 1013.52 1013.68
1021.52 1021.20 1020.92 1020.52 1020.16 1019.84 1019.60 1019.56 1019.52 1019.48 1019.48 1019.40 1019.12 1018.88 1018.68 1018.40 1018.08 1017.84 1017.56 1017.36 1017.16 1016.88 1016.56 1016.32 1016.16 1016.76 1016.64 1016.28 1016.04 1015.80 1015.84 1015.36 1014.28 1013.48 1013.12 1013.00 1013.08 1013.16 1013.16 1013.12 1013.12 1013.32
1021.96 1021.56 1021.32 1020.96 1020.60 1020.32 1020.08 1019.88 1019.76 1019.64 1019.60 1019.48 1019.40 1019.36 1019.20 1018.96 1018.68 1018.36 1018.08 1017.84 1017.68 1017.56 1017.28 1017.04 1016.96 1017.12 1017.08 1016.60 1016.24 1015.96 1015.88 1014.92 1014.04 1013.40 1013.04 1012.92 1013.00 1013.16 1013.28 1013.16 1013.20 1013.32
1022.24 1021.96 1021.64 1021.36 1021.08 1020.84 1020.56 1020.28 1020.04 1019.88 1019.76 1019.60 1019.48 1019.44 1019.44 1019.44 1019.20 1018.92 1018.72 1018.60 1018.40 1018.08 1018.08 1017.68 1017.48 1017.44 1017.32 1016.76 1016.40 1016.04 1015.72 1014.96 1013.92 1013.36 1013.20 1012.96 1013.24 1013.36 1013.12 1013.20 1014.04 1014.44
1022.40 1022.24 1022.08 1021.88 1021.60 1021.32 1021.04 1020.72 1020.40 1020.20 1019.96 1019.72 1019.56 1019.40 1019.44 1019.36 1019.40 1019.36 1019.32 1019.16 1018.96 1018.64 1018.48 1018.16 1017.92 1017.68 1017.64 1017.32 1016.56 1016.24 1015.84 1015.04 1014.04 1013.20 1013.24 1013.40 1013.44 1013.64 1013.72 1013.92 1014.36 1014.76
1022.56 1022.52 1022.40 1022.20 1021.92 1021.72 1021.52 1021.24 1020.92 1020.68 1020.40 1020.08 1019.76 1019.52 1019.44 1019.40 1019.28 1019.16 1019.28 1019.44 1019.32 1019.08 1018.76 1018.64 1018.48 1018.12 1018.00 1017.76 1017.16 1016.44 1016.12 1015.76 1015.08 1014.16 1013.80 1013.88 1013.72 1013.64 1013.92 1014.32 1014.72 1015.08
Wind_Speed
8 7 7 7 8 8 9 9 8 9 8 8 7 7 7 8 9 10 10 10 10 10 10 9 9 8 7 7 7 6 6 7 5 7 8 7 8 9 9 11 10 8
10 10 8 7 8 8 8 8 9 9 8 8 8 7 7 8 9 9 9 10 10 10 10 10 9 9 9 8 8 8 7 8 9 6 7 10 6 9 11 11 10 8
10 11 11 11 10 10 10 10 9 9 8 8 8 7 7 7 8 8 8 9 9 10 10 9 9 10 10 9 9 9 8 9 10 11 9 13 11 12 9 9 8 8
11 11 11 12 11 11 10 10 10 8 7 8 9 8 8 7 7 8 9 10 10 9 10 10 10 9 10 9 9 9 9 9 8 9 11 10 9 9 9 8 7 7
12 12 11 11 11 11 10 11 10 9 8 7 8 7 7 8 8 9 9 9 10 11 11 11 10 10 9 9 9 7 8 7 8 9 9 9 8 9 8 7 8 10
12 12 12 12 12 11 11 11 10 10 8 8 8 7 8 8 8 9 10 10 10 11 12 12 12 11 11 10 9 9 9 9 9 10 10 10 9 9 7 8 10 10
13 13 14 12 13 13 12 11 10 9 9 8 8 8 9 9 9 10 11 10 11 10 12 12 12 11 10 10 10 9 8 9 10 11 11 9 8 9 10 9 10 10
13 12 11 12 13 12 12 12 11 11 9 9 9 9 9 10 9 9 10 11 10 10 14 12 13 11 11 10 9 9 9 8 9 11 11 10 9 10 10 8 8 10
12 12 12 13 13 11 11 12 12 11 9 8 8 8 7 7 9 10 11 10 11 12 10 9 12 11 11 11 10 10 10 10 9 10 10 10 10 10 10 9 9 10
13 13 13 13 13 12 13 13 12 11 8 7 5 5 7 8 11 10 9 11 11 8 8 12 12 11 10 10 10 10 10 10 10 10 10 10 10 10 9 9 9 9
14 13 13 13 13 13 15 15 12 10 8 7 5 6 7 8 8 10 9 8 7 9 10 11 11 11 11 10 9 9 9 9 9 9 9 10 9 9 9 9 9 9
14 14 14 14 13 13 14 14 13 10 9 8 6 6 9 7 8 6 11 9 13 12 12 14 12 11 10 10 10 10 9 9 9 8 8 9 9 9 9 9 9 10
14 14 13 14 13 13 13 13 13 11 9 8 7 7 8 6 6 9 6 12 11 14 13 11 11 10 10 10 10 9 10 10 9 9 9 8 9 10 9 9 9 10
14 14 13 14 13 12 12 13 14 12 9 8 7 7 4 5 6 7 7 7 8 4 4 5 4 7 9 9 9 8 8 9 9 8 9 8 9 9 9 9 9 9
14 13 13 13 13 12 12 13 13 13 11 7 5 4 4 5 7 7 6 9 5 5 7 7 11 12 9 9 9 9 9 9 9 9 9 9 8 9 8 9 9 8
14 14 14 14 14 14 14 13 12 12 12 12 8 4 3 5 6 8 7 8 7 7 11 10 4 7 5 8 6 8 9 8 8 8 9 8 9 9 9 9 9 8
14 14 14 15 14 14 14 15 14 12 11 11 12 12 11 9 6 7 8 9 9 7 5 5 8 5 7 6 5 6 6 8 8 8 8 8 8 8 9 9 9 9
15 15 15 15 15 15 15 15 14 14 13 12 11 11 10 10 11 11 11 10 8 8 8 7 2 15 10 4 2 6 8 6 8 8 8 8 9 9 9 8 9 8
15 15 16 16 16 15 15 14 14 14 14 14 14 12 9 10 10 10 10 10 10 9 8 8 10 16 17 17 12 10 12 11 7 8 8 8 8 9 9 8 8 8
16 16 16 16 16 15 15 15 15 14 14 12 12 12 11 10 9 10 9 10 10 10 8 6 8 14 16 15 13 12 13 10 10 8 8 8 8 9 8 8 8 8
15 16 16 16 16 16 15 15 15 14 14 12 12 12 12 11 11 10 9 9 10 10 9 6 8 19 17 16 14 12 12 10 10 10 8 8 8 9 9 8 8 8
15 15 15 15 16 16 16 16 15 15 14 12 11 10 9 10 10 10 11 11 11 10 9 8 9 17 18 16 14 12 9 7 10 11 9 8 8 9 8 7 8 8
15 15 16 16 16 16 16 15 15 15 14 12 12 11 11 10 10 10 10 11 12 12 11 7 7 12 16 17 16 11 5 6 10 10 9 8 8 8 8 7 4 3
14 15 15 16 15 16 15 14 14 13 13 12 12 12 12 12 10 10 10 10 12 12 11 9 9 11 16 15 16 14 8 7 9 10 9 7 6 5 6 5 6 11
13 14 14 14 15 15 14 15 14 13 12 12 11 11 11 11 11 11 11 11 11 11 15 13 10 10 16 16 14 14 10 7 7 7 6 5 6 5 4 4 4 8
13 14 13 13 14 14 13 13 13 13 13 12 12 11 11 11 11 11 12 11 11 11 11 12 13 11 14 18 15 13 12 7 8 6 3 3 3 4 5 5 5 5
Wind_Direction
315 301 295 291 289 280 277 280 277 269 260 255 250 244 242 231 217 215 220 214 215 204 197 195 194 191 186 185 185 193 196 196 200 211 218 224 230 226 228 228 227 232
324 319 306 291 278 277 271 269 271 268 262 257 249 248 249 243 223 214 213 214 213 204 201 198 189 183 184 188 189 192 191 197 194 197 206 224 226 234 231 229 232 225
330 324 320 310 302 288 279 271 265 259 256 259 262 253 252 247 243 221 217 217 211 205 201 201 194 190 191 195 192 191 193 196 201 204 211 217 208 219 214 225 227 222
331 327 320 313 304 299 293 284 272 255 248 249 249 245 242 235 244 232 219 213 211 211 214 202 201 189 200 193 189 198 204 208 207 208 215 222 217 217 217 213 214 229
332 329 325 314 306 301 293 285 283 279 263 254 249 242 241 233 232 231 224 217 212 211 210 204 199 195 195 192 192 201 206 214 214 214 216 219 218 218 220 212 221 226
333 329 325 320 311 302 296 291 287 279 272 255 251 249 245 238 235 233 222 219 212 211 210 203 199 199 197 195 193 200 203 213 216 216 217 216 214 216 219 214 218 225
333 329 327 325 322 316 301 292 285 283 276 270 255 242 242 235 230 230 223 216 210 210 212 202 201 199 191 197 201 205 209 216 215 213 214 212 215 216 218 219 222 219
333 331 328 327 325 320 315 302 295 286 279 263 258 249 238 234 229 230 226 212 213 209 214 202 208 194 194 201 200 200 200 203 209 211 211 210 209 215 211 216 214 221
337 336 333 332 330 326 319 317 301 288 284 275 262 254 243 238 228 231 225 209 205 214 213 227 212 196 196 201 198 196 197 201 207 208 206 208 209 210 211 208 212 219
341 339 338 338 335 330 326 313 305 295 288 284 288 276 230 227 243 239 229 220 215 211 223 205 197 197 198 200 199 198 200 200 206 207 207 207 209 208 206 207 212 216
344 344 342 339 334 330 326 321 309 302 294 291 273 276 277 252 237 239 240 219 200 206 218 229 204 195 196 197 196 197 199 204 205 207 207 210 208 209 207 209 208 215
349 346 344 341 336 331 326 320 314 303 298 294 273 262 263 262 247 237 230 200 210 206 207 213 204 194 194 194 191 190 198 201 203 203 206 208 208 210 207 211 212 213
352 349 345 344 342 333 327 325 324 323 304 296 301 280 271 269 259 243 214 239 212 204 200 205 198 192 190 188 192 192 195 198 197 200 201 206 208 208 207 208 212 214
356 352 349 348 345 340 337 335 331 328 318 305 296 292 306 314 271 259 255 243 245 46 342 288 278 205 191 187 188 189 193 196 197 195 201 204 211 210 203 205 205 212
359 357 352 353 353 349 350 348 344 342 329 303 287 305 309 306 327 318 288 269 236 183 227 222 211 217 191 187 185 185 192 202 200 196 201 202 208 210 207 207 202 207
3 2 359 359 356 356 355 350 350 346 352 339 338 348 321 323 336 311 304 271 268 214 208 215 188 235 153 176 205 186 192 199 197 199 200 200 205 205 207 209 203 202
7 5 5 6 4 1 358 1 357 357 354 356 352 358 0 351 332 333 332 298 300 292 253 227 218 161 129 183 182 262 234 194 195 199 200 200 199 204 208 205 207 202
10 9 9 10 10 7 7 3 1 2 3 3 4 2 357 2 10 359 358 342 335 304 315 297 328 31 15 44 263 270 266 236 199 203 199 204 206 203 208 206 205 202
12 13 13 13 13 12 10 10 8 5 5 5 6 5 1 7 10 8 358 353 344 347 353 3 29 27 7 349 337 315 300 297 233 208 210 207 208 208 208 203 200 198
13 13 15 15 16 15 14 14 13 10 6 6 5 6 11 12 9 11 4 357 354 350 356 11 39 17 8 352 334 320 297 296 264 233 219 215 216 210 204 201 195 192
14 15 15 16 16 17 17 16 16 13 11 8 11 11 11 10 7 6 8 8 8 0 358 6 51 18 4 352 341 318 297 285 270 256 231 226 221 214 207 201 194 197
17 16 15 14 14 16 17 17 16 17 15 12 10 13 12 9 12 9 6 9 9 13 12 2 12 17 358 353 345 324 299 265 254 251 239 233 225 216 211 201 201 198
17 17 17 16 15 16 15 16 15 16 18 17 18 17 13 11 7 7 6 8 11 12 5 3 0 7 1 356 348 342 283 254 251 251 247 233 228 220 210 196 185 215
18 17 16 15 16 16 15 15 14 17 19 18 21 20 20 20 14 14 12 12 10 13 8 357 359 4 3 1 358 349 329 283 271 250 240 222 202 211 218 192 63 35
17 16 15 13 15 16 16 16 16 15 15 20 23 24 26 24 24 24 20 18 14 15 16 13 2 1 3 354 6 358 350 310 293 262 224 187 172 159 151 142 114 50
22 22 19 17 15 18 17 17 16 15 14 16 19 22 24 24 25 25 27 24 21 18 19 18 10 3 6 359 360 8 4 354 324 305 232 187 179 156 141 110 93 79